DL5ARK Weather Reports


Display with metric or nautical units.
time (UTC)temp
F
wind
direction
speed
MPH
gust
MPH
rain 1hr
in
rain 24hr
in
rain mn
in
humidity
%
barometer
mb
20260508135147 62 90 0.0 0.0 0.00 0.00 0.00 60 1005.7
20260508134850 63 67 1.0 1.0 0.00 0.00 0.00 62 1005.7
20260508134547 62 67 0.0 0.0 0.00 0.00 0.00 62 1005.7
20260508134247 60 90 2.0 2.0 0.00 0.00 0.00 63 1005.7
20260508133947 60 0 4.0 4.0 0.00 0.00 0.00 64 1005.5
20260508133648 59 315 0.0 0.0 0.00 0.00 0.00 63 1005.7
20260508133347 59 337 1.0 2.0 0.00 0.00 0.00 63 1005.7
20260508132147 58 337 1.0 2.0 0.00 0.00 0.00 62 1005.7
20260508131848 58 90 3.0 3.0 0.00 0.00 0.00 63 1005.7
20260508131547 58 45 3.0 3.0 0.00 0.00 0.00 63 1005.7
20260508130947 58 90 1.0 1.0 0.00 0.00 0.00 65 1005.7
20260508130650 58 0 1.0 1.0 0.00 0.00 0.00 66 1006.0
20260508130347 58 45 0.0 0.0 0.00 0.00 0.00 64 1005.7
20260508130047 58 337 1.0 1.0 0.00 0.00 0.00 66 1005.7
20260508125748 58 67 2.0 2.0 0.00 0.00 0.00 66 1005.7
20260508125147 58 90 4.0 4.0 0.00 0.00 0.00 66 1005.7
20260508124847 58 112 3.0 3.0 0.00 0.00 0.00 65 1005.7
20260508123947 59 112 1.0 1.0 0.00 0.00 0.00 63 1005.7
20260508123648 59 67 2.0 2.0 0.00 0.00 0.00 63 1005.7
20260508123048 59 90 3.0 3.0 0.00 0.00 0.00 63 1005.7
20260508122748 59 0 0.0 0.0 0.00 0.00 0.00 63 1005.7
20260508122450 59 202 1.0 1.0 0.00 0.00 0.00 64 1005.7
20260508122147 59 112 0.0 0.0 0.00 0.00 0.00 63 1005.7
20260508121847 59 45 1.0 1.0 0.00 0.00 0.00 62 1005.7
20260508121547 59 67 5.0 5.0 0.00 0.00 0.00 63 1005.7
20260508121246 59 45 0.0 0.0 0.00 0.00 0.00 62 1005.7
20260508120947 60 90 2.0 2.0 0.00 0.00 0.00 62 1005.7
20260508120047 60 337 2.0 2.0 0.00 0.00 0.00 63 1005.7
20260508115148 58 270 0.0 0.0 0.00 0.00 0.00 63 1005.7
20260508114847 58 180 0.0 0.0 0.00 0.00 0.00 64 1005.7
20260508114550 57 202 3.0 3.0 0.00 0.00 0.00 62 1005.7
20260508114247 57 337 2.0 2.0 0.00 0.00 0.00 63 1005.7
20260508113648 58 292 0.0 0.0 0.00 0.00 0.00 64 1005.7
20260508113348 58 337 1.0 1.0 0.00 0.00 0.00 64 1005.7
20260508113047 59 270 2.0 2.0 0.00 0.00 0.00 65 1005.7
20260508112747 58 22 1.0 1.0 0.00 0.00 0.00 65 1005.7
20260508112148 58 90 2.0 2.0 0.00 0.00 0.00 64 1005.7
20260508111847 58 90 0.0 0.0 0.00 0.00 0.00 64 1005.7
20260508111548 57 135 0.0 0.0 0.00 0.00 0.00 64 1006.0
20260508110947 58 67 1.0 1.0 0.00 0.00 0.00 64 1005.7
20260508110650 58 90 0.0 0.0 0.00 0.00 0.00 66 1005.7
20260508110348 58 270 0.0 0.0 0.00 0.00 0.00 65 1005.7
20260508110047 57 315 0.0 0.0 0.00 0.00 0.00 65 1005.7
20260508105447 58 67 1.0 2.0 0.00 0.00 0.00 65 1005.7
20260508105150 58 112 2.0 2.0 0.00 0.00 0.00 64 1005.7
20260508104847 58 337 1.0 1.0 0.00 0.00 0.00 65 1005.7
20260508104548 57 337 0.0 0.0 0.00 0.00 0.00 63 1005.7
20260508104247 57 67 1.0 1.0 0.00 0.00 0.00 64 1005.7
20260508103948 57 112 1.0 1.0 0.00 0.00 0.00 64 1005.7
20260508103647 57 67 1.0 2.0 0.00 0.00 0.00 66 1005.7
20260508103347 57 337 3.0 3.0 0.00 0.00 0.00 65 1006.0
20260508103050 57 90 2.0 2.0 0.00 0.00 0.00 66 1006.0
20260508102448 56 90 4.0 4.0 0.00 0.00 0.00 66 1006.0
20260508102148 56 45 3.0 3.0 0.00 0.00 0.00 66 1006.0
20260508101847 56 45 0.0 0.0 0.00 0.00 0.00 67 1006.0
20260508101548 56 315 0.0 0.0 0.00 0.00 0.00 68 1006.0
20260508100948 56 270 0.0 0.0 0.00 0.00 0.00 68 1006.0
20260508100650 56 225 1.0 1.0 0.00 0.00 0.00 67 1006.0
20260508100048 55 90 2.0 2.0 0.00 0.00 0.00 66 1006.0
20260508095750 55 270 0.0 0.0 0.00 0.00 0.00 68 1006.0
20260508095447 55 45 0.0 0.0 0.00 0.00 0.00 67 1006.0
20260508095148 55 112 0.0 0.0 0.00 0.00 0.00 68 1006.0
20260508094848 56 112 0.0 0.0 0.00 0.00 0.00 71 1006.0
20260508094547 56 22 1.0 1.0 0.00 0.00 0.00 71 1006.0
20260508094247 55 45 0.0 0.0 0.00 0.00 0.00 71 1006.0
20260508093948 55 90 1.0 1.0 0.00 0.00 0.00 70 1006.2
20260508093650 54 90 2.0 2.0 0.00 0.00 0.00 70 1006.2
20260508093347 54 135 2.0 2.0 0.00 0.00 0.00 71 1006.2
20260508092448 54 90 3.0 4.0 0.00 0.00 0.00 71 1006.2
20260508092147 54 90 4.0 4.0 0.00 0.00 0.00 72 1006.2
20260508091847 54 337 2.0 2.0 0.00 0.00 0.00 71 1006.2
20260508091248 53 90 2.0 2.0 0.00 0.00 0.00 71 1006.2
20260508090947 53 112 0.0 0.0 0.00 0.00 0.00 71 1006.2
20260508090647 53 337 1.0 1.0 0.00 0.00 0.00 71 1006.2
20260508090348 53 90 2.0 2.0 0.00 0.00 0.00 72 1006.2
20260508090048 53 90 0.0 0.0 0.00 0.00 0.00 73 1006.2
20260508085747 53 90 3.0 4.0 0.00 0.00 0.00 72 1006.5
20260508085450 53 67 2.0 2.0 0.00 0.00 0.00 73 1006.5
20260508084847 53 67 1.0 1.0 0.00 0.00 0.00 74 1006.5
20260508084548 53 90 4.0 4.0 0.00 0.00 0.00 74 1006.5
20260508084247 52 67 5.0 5.0 0.00 0.00 0.00 73 1006.2
20260508083948 53 90 4.0 4.0 0.00 0.00 0.00 73 1006.2
20260508083648 53 337 0.0 0.0 0.00 0.00 0.00 72 1006.2
20260508083350 53 112 2.0 2.0 0.00 0.00 0.00 72 1006.2
20260508083048 53 157 0.0 0.0 0.00 0.00 0.00 72 1006.2
20260508082747 53 90 0.0 0.0 0.00 0.00 0.00 72 1006.2
20260508082447 54 22 1.0 1.0 0.00 0.00 0.00 74 1006.2
20260508082147 53 0 0.0 0.0 0.00 0.00 0.00 73 1006.2
20260508080947 52 337 3.0 3.0 0.00 0.00 0.00 74 1006.2
20260508080647 52 67 0.0 0.0 0.00 0.00 0.00 74 1006.2
20260508080347 52 337 3.0 3.0 0.00 0.00 0.00 75 1006.2
20260508080050 52 90 4.0 4.0 0.00 0.00 0.00 75 1006.2
20260508075748 52 67 2.0 2.0 0.00 0.00 0.00 76 1006.2
20260508075148 52 67 2.0 2.0 0.00 0.00 0.00 77 1006.2
20260508074848 51 90 4.0 4.0 0.00 0.00 0.00 77 1006.2
20260508074547 51 67 0.0 0.0 0.00 0.00 0.00 78 1006.2
20260508073947 51 67 5.0 5.0 0.00 0.00 0.00 77 1006.2
20260508073647 51 337 2.0 2.0 0.00 0.00 0.00 79 1006.0
20260508073350 51 67 2.0 2.0 0.00 0.00 0.00 79 1006.0
20260508073046 50 90 3.0 3.0 0.00 0.00 0.00 78 1006.0
20260508072747 50 90 4.0 4.0 0.00 0.00 0.00 78 1006.0
20260508072147 50 90 4.0 4.0 0.00 0.00 0.00 78 1005.7
20260508071847 50 90 5.0 5.0 0.00 0.00 0.00 79 1005.7
20260508071546 50 67 4.0 4.0 0.00 0.00 0.00 79 1005.7
20260508071250 50 90 0.0 0.0 0.00 0.00 0.00 79 1005.7
20260508070948 49 67 0.0 0.0 0.00 0.00 0.00 80 1005.7
20260508070647 49 90 2.0 2.0 0.00 0.00 0.00 78 1005.7
20260508070347 49 90 3.0 3.0 0.00 0.00 0.00 79 1005.7
20260508070047 49 90 4.0 4.0 0.00 0.00 0.00 80 1005.7
20260508065747 49 0 1.0 1.0 0.00 0.00 0.00 80 1005.7
20260508065147 48 337 0.0 0.0 0.00 0.00 0.00 81 1005.7
20260508064848 48 22 0.0 0.0 0.00 0.00 0.00 81 1005.7
20260508064548 48 67 0.0 0.0 0.00 0.00 0.00 81 1005.7
20260508064248 48 67 0.0 0.0 0.00 0.00 0.00 81 1005.5
20260508063947 48 337 0.0 0.0 0.00 0.00 0.00 81 1005.7
20260508063647 48 45 0.0 0.0 0.00 0.00 0.00 81 1005.5
20260508063350 47 0 1.0 1.0 0.00 0.00 0.00 81 1005.7
20260508062747 47 45 0.0 0.0 0.00 0.00 0.00 81 1005.2
20260508062447 47 337 3.0 3.0 0.00 0.00 0.00 81 1005.5
20260508062148 47 0 4.0 4.0 0.00 0.00 0.00 81 1005.2
20260508061847 47 0 3.0 3.0 0.00 0.00 0.00 81 1005.5
20260508061547 47 0 1.0 1.0 0.00 0.00 0.00 81 1005.2
20260508061250 47 22 1.0 1.0 0.00 0.00 0.00 82 1005.2
20260508060947 47 22 0.0 0.0 0.00 0.00 0.00 82 1005.2
20260508060647 47 337 2.0 2.0 0.00 0.00 0.00 82 1005.2
20260508060046 47 0 0.0 0.0 0.00 0.00 0.00 82 1005.2
20260508055748 47 337 0.0 0.0 0.00 0.00 0.00 82 1005.2
20260508055150 47 90 1.0 1.0 0.00 0.00 0.00 83 1005.2
20260508054848 47 90 0.0 0.0 0.00 0.00 0.00 83 1005.0
20260508054547 47 90 1.0 1.0 0.00 0.00 0.00 82 1005.2
20260508054248 46 0 1.0 1.0 0.00 0.00 0.00 83 1005.2
20260508053048 46 45 0.0 0.0 0.00 0.00 0.00 83 1005.0
20260508052747 46 45 2.0 2.0 0.00 0.00 0.00 83 1005.0
20260508052448 46 45 1.0 1.0 0.00 0.00 0.00 83 1004.7
20260508052147 46 22 1.0 1.0 0.00 0.00 0.00 84 1004.7
20260508051848 46 45 0.0 0.0 0.00 0.00 0.00 84 1004.7
20260508051547 46 0 1.0 2.0 0.00 0.00 0.00 84 1005.0
20260508051250 46 45 0.0 0.0 0.00 0.00 0.00 84 1005.0
20260508050947 46 67 0.0 0.0 0.00 0.00 0.00 85 1004.7
20260508050647 46 67 1.0 1.0 0.00 0.00 0.00 84 1004.7
20260508050348 46 90 2.0 2.0 0.00 0.00 0.00 84 1004.7
20260508050048 46 90 1.0 1.0 0.00 0.00 0.00 84 1004.7
20260508045748 45 90 4.0 4.0 0.00 0.00 0.00 84 1004.7
20260508045448 45 90 2.0 2.0 0.00 0.00 0.00 85 1004.7
20260508044847 45 90 2.0 2.0 0.00 0.00 0.00 85 1004.7
20260508044548 45 90 2.0 2.0 0.00 0.00 0.00 84 1004.7
20260508044246 45 90 2.0 2.0 0.00 0.00 0.00 84 1004.7
20260508043947 45 90 2.0 2.0 0.00 0.00 0.00 84 1004.5
20260508043647 45 90 3.0 3.0 0.00 0.00 0.00 84 1004.7
20260508043048 45 90 0.0 0.0 0.00 0.00 0.00 84 1004.7
20260508042747 45 90 1.0 1.0 0.00 0.00 0.00 84 1004.7
20260508042448 45 67 1.0 1.0 0.00 0.00 0.00 84 1004.5
20260508042148 45 90 0.0 0.0 0.00 0.00 0.00 84 1004.5
20260508041848 45 67 0.0 0.0 0.00 0.00 0.00 84 1004.5
20260508041548 45 90 0.0 0.0 0.00 0.00 0.00 84 1004.5
20260508040948 45 67 2.0 2.0 0.00 0.00 0.00 84 1004.5
20260508040647 45 90 1.0 1.0 0.00 0.00 0.00 84 1004.5
20260508040347 45 90 2.0 2.0 0.00 0.00 0.00 84 1004.2
20260508040047 45 90 3.0 3.0 0.00 0.00 0.00 84 1004.5
20260508035748 45 90 3.0 3.0 0.00 0.00 0.00 84 1004.5
20260508034848 45 67 0.0 0.0 0.00 0.00 0.00 83 1004.2
20260508034547 45 67 0.0 0.0 0.00 0.00 0.00 84 1004.2
20260508034247 45 22 0.0 0.0 0.00 0.00 0.00 83 1004.2
20260508033948 45 22 0.0 0.0 0.00 0.00 0.00 83 1004.2
20260508033647 45 0 0.0 0.0 0.00 0.00 0.00 84 1004.2
20260508033347 45 45 0.0 0.0 0.00 0.00 0.00 84 1004.2
20260508032747 45 337 0.0 0.0 0.00 0.00 0.00 84 1004.2
20260508032448 45 0 0.0 0.0 0.00 0.00 0.00 84 1004.2
20260508032148 45 337 1.0 1.0 0.00 0.00 0.00 83 1004.2
20260508031848 45 0 0.0 0.0 0.00 0.00 0.00 83 1004.2
20260508031548 45 0 0.0 0.0 0.00 0.00 0.00 83 1004.2
20260508031247 45 0 1.0 1.0 0.00 0.00 0.00 84 1004.2
20260508030648 45 45 0.0 0.0 0.00 0.00 0.00 84 1004.2
20260508030347 45 337 0.0 0.0 0.00 0.00 0.00 83 1004.2
20260508030047 45 337 1.0 1.0 0.00 0.00 0.00 84 1004.2
20260508025748 45 337 1.0 1.0 0.00 0.00 0.00 84 1004.2
20260508025447 45 0 1.0 1.0 0.00 0.00 0.00 83 1004.2
20260508025147 45 0 1.0 1.0 0.00 0.00 0.00 83 1004.2
20260508024850 45 0 1.0 1.0 0.00 0.00 0.00 83 1004.2
20260508024547 45 0 0.0 0.0 0.00 0.00 0.00 83 1004.2
20260508024247 45 337 0.0 0.0 0.00 0.00 0.00 84 1004.2
20260508023948 45 337 0.0 0.0 0.00 0.00 0.00 84 1004.2
20260508023648 45 45 0.0 0.0 0.00 0.00 0.00 83 1004.2
20260508023346 45 22 0.0 0.0 0.00 0.00 0.00 84 1004.2
20260508023048 45 90 0.0 0.0 0.00 0.00 0.00 83 1004.2
20260508022750 45 67 0.0 0.0 0.00 0.00 0.00 83 1004.2
20260508022447 45 337 1.0 1.0 0.00 0.00 0.00 83 1004.0
20260508022147 45 90 0.0 0.0 0.00 0.00 0.00 83 1004.2
20260508021847 45 90 0.0 0.0 0.00 0.00 0.00 83 1004.2
20260508021548 45 90 0.0 0.0 0.00 0.00 0.00 83 1004.2
20260508021248 45 90 0.0 0.0 0.00 0.00 0.00 83 1004.0
20260508020950 45 0 0.0 0.0 0.00 0.00 0.00 83 1004.0
20260508020647 45 337 0.0 0.0 0.00 0.00 0.00 83 1004.2
20260508020347 45 0 0.0 0.0 0.00 0.00 0.00 83 1004.2
20260508020047 45 0 0.0 0.0 0.00 0.00 0.00 83 1004.0
20260508015748 45 0 0.0 0.0 0.00 0.00 0.00 83 1004.0
20260508015448 45 45 1.0 1.0 0.00 0.00 0.00 83 1004.2
20260508015148 45 90 0.0 0.0 0.00 0.00 0.00 83 1004.2
20260508014850 45 90 0.0 0.0 0.00 0.00 0.00 83 1004.2
20260508014548 45 0 0.0 0.0 0.00 0.00 0.00 83 1004.2
20260508014247 45 22 0.0 0.0 0.00 0.00 0.00 83 1004.2
20260508013948 45 0 0.0 0.0 0.00 0.00 0.00 83 1004.2
20260508013647 45 0 0.0 0.0 0.00 0.00 0.00 84 1004.2
20260508013348 45 22 0.0 0.0 0.00 0.00 0.00 84 1004.2
20260508013048 45 67 0.0 0.0 0.00 0.00 0.00 83 1004.2
20260508012750 45 67 0.0 0.0 0.00 0.00 0.00 84 1004.2
20260508012448 45 90 0.0 0.0 0.00 0.00 0.00 83 1004.2
20260508012148 45 90 0.0 0.0 0.00 0.00 0.00 84 1004.2
20260508011848 45 90 1.0 1.0 0.00 0.00 0.00 83 1004.2
20260508011548 45 90 1.0 1.0 0.00 0.00 0.00 84 1004.2
20260508011248 45 90 0.0 0.0 0.00 0.00 0.00 83 1004.2
20260508010947 45 90 0.0 0.0 0.00 0.00 0.00 84 1004.2
20260508010348 45 67 0.0 0.0 0.00 0.00 0.00 84 1004.2
20260508010047 45 90 0.0 0.0 0.00 0.00 0.00 84 1004.2
20260508005747 45 90 0.0 0.0 0.00 0.00 0.00 84 1004.2
20260508005448 45 67 0.0 0.0 0.00 0.00 0.00 84 1004.2
20260508005148 45 337 0.0 0.0 0.00 0.00 0.00 84 1004.2
20260508004848 45 67 0.0 0.0 0.00 0.00 0.00 84 1004.2
20260508004248 45 90 0.0 0.0 0.00 0.00 0.00 84 1004.5
20260508003648 45 90 1.0 1.0 0.00 0.00 0.00 84 1004.5
20260508003347 45 90 0.0 0.0 0.00 0.00 0.00 84 1004.2
20260508003047 45 67 0.0 0.0 0.00 0.00 0.00 84 1004.2
20260508002747 45 67 3.0 3.0 0.00 0.00 0.00 84 1004.2
20260508002450 45 67 2.0 2.0 0.00 0.00 0.00 84 1004.2
20260508002147 45 90 2.0 2.0 0.00 0.00 0.00 84 1004.2
20260508001847 45 45 1.0 1.0 0.00 0.00 0.00 84 1004.2
20260508001547 45 67 2.0 2.0 0.00 0.00 0.00 84 1004.2
20260508001248 45 90 5.0 5.0 0.00 0.00 0.00 84 1004.2
20260508000948 45 90 2.0 2.0 0.00 0.00 0.00 84 1004.2
20260508000648 45 90 2.0 2.0 0.00 0.00 0.00 83 1004.2
20260508000048 45 90 2.0 2.0 0.00 0.00 0.00 83 1004.2
20260507235747 45 90 2.0 2.0 0.00 0.00 0.00 83 1004.2
20260507235448 45 90 0.0 0.0 0.00 0.00 0.00 83 1004.2
20260507235147 45 45 0.0 0.0 0.00 0.00 0.00 83 1004.2
20260507234848 45 112 0.0 0.0 0.00 0.00 0.00 83 1004.2
20260507234547 45 337 0.0 0.0 0.00 0.00 0.00 83 1004.2
20260507233947 45 67 1.0 1.0 0.00 0.00 0.00 82 1004.2
20260507233647 45 90 0.0 0.0 0.00 0.00 0.00 82 1004.2
20260507233346 45 337 0.0 0.0 0.00 0.00 0.00 83 1004.2
20260507233048 45 90 0.0 0.0 0.00 0.00 0.00 82 1004.2
20260507232747 45 337 0.0 0.0 0.00 0.00 0.00 82 1004.2
20260507232147 45 337 0.0 0.0 0.00 0.00 0.00 83 1004.2
20260507231848 45 90 0.0 0.0 0.00 0.00 0.00 83 1004.2
20260507231548 45 337 0.0 0.0 0.00 0.00 0.00 83 1004.2
20260507231247 45 90 0.0 0.0 0.00 0.00 0.00 83 1004.2
20260507230947 45 337 0.0 0.0 0.00 0.00 0.00 83 1004.2
20260507230647 45 90 0.0 0.0 0.00 0.00 0.00 83 1004.2
20260507230350 45 135 0.0 0.0 0.00 0.00 0.00 83 1004.5
20260507230046 46 135 0.0 0.0 0.00 0.00 0.00 83 1004.5
20260507225747 46 90 0.0 0.0 0.00 0.00 0.00 83 1004.5
20260507225147 46 90 0.0 0.0 0.00 0.00 0.00 83 1004.2
20260507224847 46 90 0.0 0.0 0.00 0.00 0.00 83 1004.2
20260507224247 46 112 0.0 0.0 0.00 0.00 0.00 83 1004.2
20260507223948 46 337 0.0 0.0 0.00 0.00 0.00 83 1004.2
20260507223647 46 112 0.0 0.0 0.00 0.00 0.00 83 1004.2
20260507223348 46 112 0.0 0.0 0.00 0.00 0.00 83 1004.2
20260507223047 46 112 0.0 0.0 0.00 0.00 0.00 83 1004.5
20260507222750 46 90 0.0 0.0 0.00 0.00 0.00 82 1004.2
20260507222448 46 337 0.0 0.0 0.00 0.00 0.00 83 1004.2
20260507222147 46 90 1.0 1.0 0.00 0.00 0.00 82 1004.2
20260507221846 46 90 2.0 2.0 0.00 0.00 0.00 82 1004.2
20260507221548 46 90 1.0 1.0 0.00 0.00 0.00 82 1004.5
20260507221248 46 90 1.0 1.0 0.00 0.00 0.00 83 1004.2
20260507220947 46 90 0.0 0.0 0.00 0.00 0.00 83 1004.5
20260507220650 46 90 0.0 0.0 0.00 0.00 0.00 83 1004.5
20260507220348 46 90 0.0 0.0 0.00 0.00 0.00 83 1004.5
20260507220047 46 90 0.0 0.0 0.00 0.00 0.00 83 1004.2
20260507215748 46 90 0.0 0.0 0.00 0.00 0.56 82 1004.5
20260507215448 46 337 1.0 1.0 0.00 0.00 0.56 82 1004.2
20260507215150 46 90 1.0 1.0 0.00 0.00 0.56 83 1004.5
20260507214847 46 90 1.0 1.0 0.00 0.00 0.56 82 1004.2
20260507214548 46 90 1.0 1.0 0.00 0.00 0.56 82 1004.2
20260507214246 46 90 2.0 2.0 0.00 0.00 0.56 82 1004.2
20260507213947 46 90 0.0 0.0 0.00 0.00 0.56 82 1004.2
20260507213648 46 90 0.0 0.0 0.00 0.00 0.56 82 1004.2
20260507213350 46 90 0.0 0.0 0.00 0.00 0.56 82 1004.2
20260507213048 46 90 0.0 0.0 0.00 0.00 0.56 82 1004.2
20260507212747 46 67 0.0 0.0 0.00 0.00 0.56 82 1004.2
20260507212447 46 45 4.0 4.0 0.00 0.00 0.56 82 1004.2
20260507212147 46 112 2.0 2.0 0.00 0.00 0.56 82 1004.2
20260507211847 46 112 1.0 1.0 0.00 0.00 0.56 82 1004.2
20260507211247 46 90 0.0 0.0 0.00 0.00 0.56 82 1004.2
20260507210948 46 337 0.0 0.0 0.00 0.00 0.56 82 1004.2
20260507210647 46 90 2.0 2.0 0.00 0.00 0.56 82 1004.2
20260507210348 46 90 4.0 4.0 0.00 0.00 0.56 81 1004.2
20260507210047 46 90 1.0 1.0 0.00 0.00 0.56 82 1004.2
20260507205750 46 135 0.0 0.0 0.00 0.00 0.56 81 1004.2
20260507205147 46 90 1.0 1.0 0.00 0.00 0.56 82 1004.2
20260507204247 46 90 0.0 0.0 0.00 0.00 0.56 81 1004.2
20260507203947 46 67 0.0 0.0 0.00 0.00 0.56 81 1004.0
20260507203647 46 112 1.0 1.0 0.00 0.00 0.56 81 1004.2
20260507203350 46 112 1.0 1.0 0.00 0.00 0.56 81 1004.0
20260507203048 46 135 0.0 0.0 0.00 0.00 0.56 81 1004.0
20260507202748 46 157 0.0 0.0 0.00 0.00 0.56 82 1004.0
20260507202448 46 337 0.0 0.0 0.00 0.00 0.56 81 1004.0
20260507202148 46 90 3.0 3.0 0.00 0.00 0.56 81 1004.0
20260507201547 46 337 0.0 0.0 0.00 0.00 0.56 81 1004.0
20260507201247 46 337 0.0 0.0 0.00 0.00 0.56 81 1004.0
20260507200948 46 90 1.0 1.0 0.00 0.00 0.56 81 1004.0
20260507200647 46 90 4.0 4.0 0.00 0.00 0.56 81 1003.8
20260507200348 46 90 0.0 0.0 0.00 0.00 0.56 81 1003.8
20260507200050 46 90 3.0 4.0 0.00 0.00 0.56 81 1003.8
20260507195748 46 90 1.0 1.0 0.00 0.00 0.56 81 1003.8
20260507195447 46 135 1.0 1.0 0.00 0.00 0.56 81 1003.8
20260507195147 47 90 1.0 1.0 0.00 0.00 0.56 81 1003.8
20260507194848 47 90 0.0 0.0 0.00 0.00 0.56 81 1003.8
20260507194248 47 202 0.0 0.0 0.00 0.00 0.56 81 1003.5
20260507193947 47 292 0.0 0.0 0.00 0.00 0.56 81 1003.5
20260507193648 47 337 0.0 0.0 0.00 0.00 0.56 81 1003.5
20260507193348 47 225 0.0 0.0 0.00 0.00 0.56 81 1003.5
20260507193050 47 337 2.0 2.0 0.00 0.00 0.56 82 1003.5
20260507192747 47 337 2.0 2.0 0.00 0.00 0.56 81 1003.3
20260507192447 47 180 1.0 1.0 0.00 0.00 0.56 81 1003.3
20260507192147 47 135 1.0 1.0 0.00 0.00 0.56 81 1003.3
20260507191848 47 337 1.0 2.0 0.00 0.00 0.56 81 1003.3
20260507191550 47 180 1.0 1.0 0.00 0.00 0.56 80 1003.3
20260507191247 47 157 0.0 0.0 0.00 0.00 0.56 81 1003.3
20260507190948 47 135 0.0 0.0 0.00 0.00 0.56 80 1003.3
20260507190647 47 135 2.0 2.0 0.00 0.00 0.56 80 1003.0
20260507190348 47 135 1.0 1.0 0.00 0.00 0.56 80 1003.3
20260507190047 47 112 0.0 0.0 0.00 0.00 0.56 80 1003.3
20260507185750 47 0 0.0 0.0 0.00 0.00 0.56 80 1003.0
20260507185447 47 112 1.0 1.0 0.00 0.00 0.56 80 1003.0
20260507185148 47 0 3.0 3.0 0.00 0.00 0.56 80 1002.8
20260507184847 47 45 3.0 3.0 0.00 0.00 0.56 80 1002.8
20260507184548 47 225 0.0 0.0 0.00 0.00 0.56 80 1002.8
20260507184247 47 90 0.0 0.0 0.00 0.00 0.56 80 1002.8
20260507183647 47 315 0.0 0.0 0.00 0.00 0.56 80 1002.8
20260507183347 47 67 0.0 0.0 0.00 0.00 0.56 79 1002.8
20260507183048 47 0 6.0 6.0 0.00 0.00 0.56 79 1002.8
20260507182748 48 90 1.0 1.0 0.00 0.00 0.56 80 1002.8
20260507182448 48 112 0.0 0.0 0.00 0.00 0.56 79 1002.8
20260507181848 48 112 0.0 0.0 0.00 0.00 0.56 79 1002.8
20260507181547 48 67 3.0 3.0 0.00 0.00 0.56 80 1002.8
20260507181247 48 22 0.0 0.0 0.00 0.00 0.56 79 1002.8
20260507180648 48 22 0.0 0.0 0.00 0.00 0.56 80 1002.8
20260507180047 48 90 2.0 2.0 0.00 0.00 0.56 80 1002.5
20260507175747 49 292 0.0 0.0 0.00 0.00 0.56 80 1002.5
20260507175448 49 337 0.0 0.0 0.00 0.00 0.56 80 1002.5
20260507175148 49 90 3.0 3.0 0.00 0.00 0.56 80 1002.5
20260507174848 49 337 1.0 1.0 0.00 0.00 0.56 80 1002.5
20260507174547 49 225 1.0 2.0 0.00 0.00 0.56 80 1002.5
20260507174248 49 45 1.0 1.0 0.00 0.00 0.56 80 1002.5
20260507173948 49 337 2.0 2.0 0.00 0.00 0.56 80 1002.3
20260507173647 49 90 1.0 1.0 0.00 0.00 0.56 80 1002.3
20260507173048 50 22 2.0 2.0 0.00 0.00 0.56 81 1002.3
20260507172748 50 180 0.0 0.0 0.00 0.00 0.56 81 1002.0
20260507172448 50 112 2.0 2.0 0.00 0.00 0.56 81 1002.0
20260507172147 50 90 2.0 2.0 0.00 0.00 0.56 80 1002.0
20260507171848 50 90 4.0 4.0 0.00 0.00 0.56 80 1002.0
20260507171550 50 90 3.0 3.0 0.00 0.00 0.56 80 1002.0
20260507171247 50 112 0.0 0.0 0.00 0.00 0.56 80 1002.0
20260507170947 50 337 1.0 1.0 0.00 0.00 0.56 80 1002.0
20260507170648 50 112 0.0 0.0 0.00 0.00 0.56 80 1001.8
20260507170347 50 90 0.0 0.0 0.00 0.00 0.56 80 1001.8
20260507170048 50 90 1.0 1.0 0.00 0.00 0.56 80 1001.8
20260507165447 50 0 0.0 0.0 0.00 0.00 0.56 81 1001.8
20260507165147 50 0 0.0 0.0 0.00 0.00 0.56 81 1001.8
20260507164848 50 0 1.0 1.0 0.00 0.00 0.56 80 1001.8
20260507164547 50 22 5.0 5.0 0.00 0.00 0.56 80 1001.8
20260507164248 50 0 4.0 4.0 0.00 0.00 0.53 80 1001.8
20260507163947 50 0 0.0 0.0 0.00 0.00 0.53 81 1001.8
20260507163647 51 0 0.0 0.0 0.00 0.00 0.52 81 1001.8
20260507163348 50 67 0.0 0.0 0.00 0.00 0.52 81 1001.8
20260507163048 51 67 1.0 1.0 0.00 0.00 0.52 81 1001.8
20260507162447 51 112 2.0 2.0 0.00 0.00 0.52 80 1001.8
20260507162147 51 90 2.0 2.0 0.00 0.00 0.52 80 1001.8
20260507161848 51 90 2.0 2.0 0.00 0.00 0.52 79 1001.5
20260507161547 51 45 1.0 1.0 0.00 0.00 0.52 78 1001.5
20260507161248 51 67 2.0 2.0 0.00 0.00 0.52 78 1001.5
20260507160648 51 67 0.0 0.0 0.00 0.00 0.50 78 1001.8
20260507160348 50 45 0.0 0.0 0.00 0.00 0.50 78 1001.5
20260507160048 51 315 3.0 3.0 0.00 0.00 0.50 78 1001.5
20260507155746 51 337 2.0 2.0 0.00 0.00 0.50 79 1001.5
20260507155448 52 337 1.0 1.0 0.00 0.00 0.50 79 1001.5
20260507155150 53 270 2.0 2.0 0.00 0.00 0.50 79 1001.3
20260507154848 53 270 2.0 2.0 0.00 0.00 0.50 79 1001.3
20260507154548 53 337 0.0 0.0 0.00 0.00 0.50 78 1001.3
20260507154247 53 270 0.0 0.0 0.00 0.00 0.50 78 1001.3
20260507153647 53 225 4.0 4.0 0.00 0.00 0.50 79 1001.3
20260507153048 54 270 1.0 2.0 0.00 0.00 0.50 79 1001.3
20260507152747 54 247 2.0 2.0 0.00 0.00 0.50 79 1001.3
20260507152447 53 337 1.0 1.0 0.00 0.00 0.50 79 1001.3
20260507152147 54 337 1.0 1.0 0.00 0.00 0.50 79 1001.3
20260507151548 54 225 2.0 2.0 0.00 0.00 0.50 79 1001.3
20260507151247 54 337 5.0 6.0 0.00 0.00 0.50 79 1001.3
20260507150948 54 270 2.0 2.0 0.00 0.00 0.50 79 1001.3
20260507150648 54 225 1.0 1.0 0.00 0.00 0.50 79 1001.3
20260507150350 54 225 3.0 3.0 0.00 0.00 0.50 79 1001.3
20260507150047 54 225 1.0 1.0 0.00 0.00 0.50 79 1001.3
20260507145748 54 225 2.0 2.0 0.00 0.00 0.50 79 1001.3
20260507145447 54 247 2.0 2.0 0.00 0.00 0.50 79 1001.3
20260507145147 54 225 2.0 2.0 0.00 0.00 0.50 78 1001.3
20260507144847 54 247 1.0 1.0 0.00 0.00 0.50 78 1001.3
20260507144548 54 247 3.0 4.0 0.00 0.00 0.50 78 1001.3
20260507144248 54 337 1.0 1.0 0.00 0.00 0.50 79 1001.0
20260507143948 53 180 3.0 3.0 0.00 0.00 0.50 79 1001.3
20260507143648 53 225 4.0 4.0 0.00 0.00 0.50 78 1001.0
20260507143350 53 337 4.0 4.0 0.00 0.00 0.50 78 1001.3
20260507143047 53 202 2.0 2.0 0.00 0.00 0.50 78 1001.0
20260507142747 53 337 4.0 4.0 0.00 0.00 0.50 78 1001.3
20260507142447 53 292 6.0 6.0 0.00 0.00 0.50 77 1001.0
20260507142148 53 292 5.0 5.0 0.00 0.00 0.50 77 1001.0
20260507141848 53 247 3.0 3.0 0.00 0.00 0.50 76 1001.0
20260507141247 54 315 3.0 3.0 0.00 0.00 0.50 75 1001.0
20260507140947 55 270 4.0 4.0 0.00 0.00 0.50 75 1001.0
20260507140647 55 337 3.0 3.0 0.00 0.00 0.50 77 1000.8
20260507140350 56 225 2.0 2.0 0.00 0.00 0.50 78 1000.8
20260507140048 55 225 1.0 1.0 0.00 0.00 0.50 77 1001.0
20260507135748 55 225 2.0 2.0 0.00 0.00 0.50 77 1001.0
20260507135447 55 270 2.0 2.0 0.00 0.00 0.50 77 1000.8